Hourly Data Report for April 25, 2020

CLYDE RIVER A
NUNAVUT
Current Station Operator: NAVCAN

70°29'09.000" N
68°31'01.000" W
26.50 m
2400804
71090
YCY

Download Data

Hourly Data (April 2020)
Hourly Data Report for April 25, 2020
TIME
LST
Temp Definition
°C
Dew Point Definition
°C
Rel Hum Definition
%
Precip. Amount Definition
mm

Wind Dir Definition
10's deg

Wind Spd Definition
km/h
Visibility Definition
km
Stn Press Definition
kPa
Hmdx Definition


Wind Chill Definition


Weather Definition


00:00 -10.9 -12.7 87 0.0 33 26 16.1 101.41   -20 LegendNANA
01:00 -10.8 -12.7 86 0.0 33 22 16.1 101.37   -19 LegendNANA
02:00 -10.9 -12.2 90 0.0 33 26 16.1 101.35   -20 LegendNANA
03:00 -10.6 -12.3 88 0.0 34 21 16.1 101.33   -19 LegendNANA
04:00 -9.9 -12.6 81 0.0 32 13 16.1 101.30   -16 LegendNANA
05:00 -10.0 -12.5 82 0.0 33 22 16.1 101.25   -18 LegendNANA
06:00 -10.4 -12.5 85 0.0 33 22 16.1 101.20   -19 LegendNANA
07:00 -10.2 -12.1 86 0.0 34 17 16.1 101.25   -17 LegendNANA
08:00 -9.6 -13.1 76 0.0 34 13 16.1 101.23   -16 LegendNANA
09:00 -9.1 -12.9 74 0.0 33 13 16.1 101.20   -15 LegendNANA
10:00 -8.6 -12.9 71 0.0 33 15 16.1 101.12   -15 LegendNANA
11:00 -8.1 -11.7 76 0.0 32 17 16.1 101.05   -15 LegendNANA
12:00 -8.5 -11.0 82 0.0 35 17 16.1 101.00   -15 LegendNANA
13:00 -8.5 -11.3 81 0.0 34 8 16.1 101.05   -13 LegendNANA
14:00 -8.4 -11.1 81 0.0 34 17 16.1 100.97   -15 LegendNANA
15:00 -8.5 -10.9 83 0.0 35 13 16.1 100.96   -14 LegendNANA
16:00 -9.1 -11.3 84 0.0 36 22 16.1 100.86   -17 LegendNANA
17:00 -9.2 -11.3 85 0.0 33 17 16.1 100.83   -16 LegendNANA
18:00 -8.8 -12.0 78 0.0 35 13 16.1 100.82   -15 LegendNANA
19:00 -9.0 -11.4 83 0.0 33 11 16.1 100.75   -14 LegendNANA
20:00 -9.8 -12.5 81 0.0 34 8 16.1 100.73   -14 LegendNANA
21:00 -10.0 -12.4 83 0.0 32 9 16.1 100.65   -15 LegendNANA
22:00 -9.3 -12.1 80 0.0 29 4 16.1 100.61   -12 LegendNANA
23:00 -10.1 -11.7 88 0.0 34 5 16.1 100.54   -13 LegendNANA

Notes on Data Quality.

Legend

  • E = Estimated
  • M = Missing
  • NA = Not Available*
  • [empty] = Indicates an unobserved value
Date modified: